Location: Rounton
(54.4000°N, 1.3500°W)
Time: 04:50:43
(UTC+00:00)

A-11 Canister half - Pass Details

Date: 05 December 2021
Orbit: 1524 x 1684 km, 47.3° (Epoch: 17 January)

Event Time Altitude Azimuth Distance (km) Brightness Sun altitude
Exits shadow 04:59:53 39° 244° (WSW) 2,340 9.5 -26.1°
Maximum altitude 05:03:39 56° 190° (S) 1,906 9.3 -25.6°
Drops below altitude 10° 05:13:09 10° 115° (ESE) 3,839 12.0 -24.2°
Sets 05:16:17 0° 112° (ESE) 4,802 12.9 -23.7°
